Showing default

DASH 1, 589

Orbit data source: Space-Track

DASH 1, 589 is a payload satellite owned by USAF SSD (US) in LEO that was launched on Thu, 09 May 1963 UTC via an ATLAS AGENA B launch vehicle from the Air Force Western Test Range (AFWTR). Payload-class satellites include a variety of spacecraft equipped with specific instruments for various scientific and technological missions. These include communications satellites like Starlink; space stations such as the ISS; scientific satellites like the Hubble; Earth observation satellites from companies like Planet Labs, Umbra, and HawkEye 360; GPS; miniature CubeSats for education and research; and military/defense satellites.

Loading next visibility...
Identifier
589, 1963-014D
Orbit
LEO
Country
Flag of USUS
Related business
Manufacturer
MITLL?
Mission
Spacecraft
Bus & Motor
DASH, Unknown motor
Mass
1 kg wet, 1 kg dry
Launch date (UTC)
1963-05-09 (63 years ago)
Launch vehicle
ATLAS AGENA B
Launch site
Air Force Western Test Range (AFWTR)
Object type
Payload
Rocket body
Debris
Shape & HBR
Unknown
Radar Cross Section
Large (>1 m²)

Expand to show TLE details & history
Last TLE update: 18 hours ago

TLE from 18 hours ago
0 DASH 1
1 00589U 63014D   26174.48115016 -.00000012  00000-0 -67089-2 0  9999
2 00589  87.3505 189.9777 0053678 293.0734  66.4468  8.65625824994368
Epoch: 2026-06-23T11:32Z
TLE epoch observation values (Epoch: 2026-06-23T11:32:51.373Z)
Latitude
-0.00001°
Longitude
105.11155°
Altitude
3,622.353 km
Speed
6.321 km/s
True Right ascension
12h 39m 54s
True Declination
0° 00' 00"
Sunlit
Object was in daylight at epoch
Visualization orbit readout
Latitude
Unknown
Longitude
Unknown
Altitude
Unknown
Speed
Unknown
Apparent Right ascension
Unknown
Apparent Declination
Unknown
Sunlit
N/A
Visualization observer readout
Local Sidereal Time
16:51:46
Azimuth
Unknown
Elevation
Unknown
Doppler factor
Unknown
Orbital elements
Apogee altitude
3,693.011 km
Perigee altitude
3,585.468 km
Semi-major axis
10,017.376 km
Eccentricity
0.00537
Inclination
87.3505°
RAAN
189.9777°
Arg. of periapsis
293.0734°
True anomaly
67.01217°
Mean anomaly
66.4468°
Eccentric anomaly
66.72933°
Mean motion
2.16477 °/min
Orbital period
166.3 mins
BSTAR
-0.0067089
Loading maneuver chart data...
Computing Atmospheric mass density...

Documentation

Showing up to 5 results
|